Year,Month,Day,Hour,Minute,Value (Times are PST for temperature in C)
2004,03,15,00,00,6.90
2004,03,15,00,01,6.70
2004,03,15,00,02,6.70
2004,03,15,00,03,6.60
2004,03,15,00,04,6.60
2004,03,15,00,05,6.60
2004,03,15,00,06,6.60
2004,03,15,00,07,6.60
2004,03,15,00,08,6.60
2004,03,15,00,09,6.60
2004,03,15,00,10,6.60
2004,03,15,00,11,6.60
2004,03,15,00,12,6.60
2004,03,15,00,13,6.60
2004,03,15,00,14,6.60
2004,03,15,00,15,6.60
2004,03,15,00,16,6.60
2004,03,15,00,17,6.90
2004,03,15,00,18,7.00
2004,03,15,00,19,7.00
2004,03,15,00,20,7.00
2004,03,15,00,21,7.00
2004,03,15,00,22,7.00
2004,03,15,00,23,7.00
2004,03,15,00,24,7.00
2004,03,15,00,25,6.90
2004,03,15,00,26,6.80
2004,03,15,00,27,6.80
2004,03,15,00,28,6.80
2004,03,15,00,29,6.80
2004,03,15,00,30,6.80
2004,03,15,00,31,6.80
2004,03,15,00,32,6.80
2004,03,15,00,33,6.80
2004,03,15,00,34,6.80
2004,03,15,00,35,6.80
2004,03,15,00,36,6.80
2004,03,15,00,37,6.80
2004,03,15,00,38,6.80
2004,03,15,00,39,6.80
2004,03,15,00,40,6.80
2004,03,15,00,41,6.80
2004,03,15,00,42,6.80
2004,03,15,00,43,6.80
2004,03,15,00,44,6.80
2004,03,15,00,45,6.70
2004,03,15,00,46,6.70
2004,03,15,00,47,6.70
2004,03,15,00,48,6.60
2004,03,15,00,49,6.60
2004,03,15,00,50,6.60
2004,03,15,00,51,6.60
2004,03,15,00,52,6.60
2004,03,15,00,53,6.60
2004,03,15,00,54,6.60
2004,03,15,00,55,6.40
2004,03,15,00,56,6.40
2004,03,15,00,57,6.40
2004,03,15,00,58,6.40
2004,03,15,00,59,6.40
2004,03,15,01,00,6.40
2004,03,15,01,01,6.40
2004,03,15,01,02,6.40
2004,03,15,01,03,6.40
2004,03,15,01,04,6.40
2004,03,15,01,05,6.40
2004,03,15,01,06,6.40
2004,03,15,01,07,6.40
2004,03,15,07,55,7.90
2004,03,15,07,56,7.80
2004,03,15,07,57,7.80
2004,03,15,07,58,7.90
2004,03,15,07,59,7.90
2004,03,15,08,00,7.90
2004,03,15,08,01,7.90
2004,03,15,08,02,7.90
2004,03,15,08,03,7.90
2004,03,15,08,04,8.00
2004,03,15,08,05,7.90
2004,03,15,08,06,8.00
2004,03,15,08,07,8.00
2004,03,15,08,08,8.10
2004,03,15,08,09,8.10
2004,03,15,08,10,8.10
2004,03,15,08,11,8.00
2004,03,15,08,12,7.90
2004,03,15,08,13,8.00
2004,03,15,08,14,8.10
2004,03,15,08,15,8.10
2004,03,15,08,16,8.00
2004,03,15,08,17,8.00
2004,03,15,08,18,7.90
2004,03,15,08,19,8.00
2004,03,15,08,20,8.00
2004,03,15,08,21,8.10
2004,03,15,08,22,8.10
2004,03,15,08,23,8.10
2004,03,15,08,24,8.20
2004,03,15,08,25,8.30
2004,03,15,08,26,8.30
2004,03,15,08,27,8.40
2004,03,15,08,28,8.40
2004,03,15,08,29,8.40
2004,03,15,08,30,8.40
2004,03,15,08,31,8.40
2004,03,15,08,32,8.40
2004,03,15,08,33,8.50
2004,03,15,08,34,8.50
2004,03,15,08,35,8.50
2004,03,15,08,36,8.50
2004,03,15,08,37,8.40
2004,03,15,08,38,8.50
2004,03,15,08,39,8.50
2004,03,15,08,40,8.50
2004,03,15,08,41,8.60
2004,03,15,08,42,8.50
2004,03,15,08,43,8.50
2004,03,15,08,44,8.60
2004,03,15,08,45,8.60
2004,03,15,08,46,8.70
2004,03,15,08,47,8.70
2004,03,15,08,48,8.70
2004,03,15,08,49,8.70
2004,03,15,08,50,8.70
2004,03,15,08,51,8.80
2004,03,15,08,52,8.80
2004,03,15,08,53,8.80
2004,03,15,08,54,8.80
2004,03,15,08,55,8.80
2004,03,15,08,56,8.80
2004,03,15,08,57,8.80
2004,03,15,08,58,8.90
2004,03,15,08,59,8.90
2004,03,15,09,00,8.90
2004,03,15,09,01,8.90
2004,03,15,09,02,8.80
2004,03,15,09,03,8.70
2004,03,15,09,04,8.70
2004,03,15,09,05,8.70
2004,03,15,09,06,8.70
2004,03,15,09,07,8.60
2004,03,15,09,08,8.60
2004,03,15,09,09,8.70
2004,03,15,09,10,8.80
2004,03,15,09,11,8.90
2004,03,15,09,12,8.80
2004,03,15,09,13,8.70
2004,03,15,09,14,8.70
2004,03,15,09,15,8.60
2004,03,15,09,16,8.70
2004,03,15,09,17,8.60
2004,03,15,09,18,8.70
2004,03,15,09,19,8.60
2004,03,15,09,20,8.70
2004,03,15,09,21,8.70
2004,03,15,09,22,8.70
2004,03,15,09,23,8.70
2004,03,15,09,24,8.80
2004,03,15,09,25,8.90
2004,03,15,09,26,8.90
2004,03,15,09,27,8.90
2004,03,15,09,28,9.00
2004,03,15,09,29,9.00
2004,03,15,09,30,9.00
2004,03,15,09,31,8.90
2004,03,15,09,32,8.90
2004,03,15,09,33,8.90
2004,03,15,09,34,9.00
2004,03,15,09,35,9.10
2004,03,15,09,36,9.20
2004,03,15,09,37,9.20
2004,03,15,09,38,9.20
2004,03,15,09,39,9.20
2004,03,15,09,40,9.30
2004,03,15,09,41,9.30
2004,03,15,09,42,9.30
2004,03,15,09,43,9.20
2004,03,15,09,44,9.20
2004,03,15,09,45,9.20
2004,03,15,09,46,9.20
2004,03,15,09,47,9.20
2004,03,15,09,48,9.20
2004,03,15,09,49,9.20
2004,03,15,09,50,9.20
2004,03,15,09,51,9.20
2004,03,15,09,52,9.20
2004,03,15,09,53,9.20
2004,03,15,09,54,9.20
2004,03,15,09,55,9.30
2004,03,15,09,56,9.40
2004,03,15,09,57,9.50
2004,03,15,09,58,9.50
2004,03,15,09,59,9.50
2004,03,15,10,00,9.40
2004,03,15,10,01,9.40
2004,03,15,10,02,9.40
2004,03,15,10,03,9.40
2004,03,15,10,04,9.40
2004,03,15,10,05,9.40
2004,03,15,10,06,9.50
2004,03,15,10,07,9.50
2004,03,15,10,08,9.60
2004,03,15,10,09,9.50
2004,03,15,10,10,9.50
2004,03,15,10,11,9.40
2004,03,15,10,12,9.40
2004,03,15,10,13,9.30
2004,03,15,10,14,9.30
2004,03,15,10,15,9.40
2004,03,15,10,16,9.50
2004,03,15,10,17,9.60
2004,03,15,10,18,9.60
2004,03,15,10,19,9.60
2004,03,15,10,20,9.60
2004,03,15,10,21,9.70
2004,03,15,10,22,9.80
2004,03,15,10,23,9.80
2004,03,15,10,24,9.90
2004,03,15,10,25,9.70
2004,03,15,10,26,9.70
2004,03,15,10,27,9.80
2004,03,15,10,28,9.80
2004,03,15,10,29,9.90
2004,03,15,10,30,10.10
2004,03,15,10,31,10.10
2004,03,15,10,32,9.90
2004,03,15,10,33,9.90
2004,03,15,10,34,9.80
2004,03,15,10,35,9.80
2004,03,15,10,36,9.90
2004,03,15,10,37,10.10
2004,03,15,10,38,10.00
2004,03,15,10,39,10.10
2004,03,15,10,40,10.00
2004,03,15,10,41,10.00
2004,03,15,10,42,10.10
2004,03,15,10,43,10.10
2004,03,15,10,44,10.00
2004,03,15,10,45,9.90
2004,03,15,10,46,9.80
2004,03,15,10,47,9.80
2004,03,15,10,48,9.60
2004,03,15,10,49,9.60
2004,03,15,10,50,9.60
2004,03,15,10,51,9.60
2004,03,15,10,52,9.50
2004,03,15,10,53,9.60
2004,03,15,10,54,9.50
2004,03,15,10,55,9.50
2004,03,15,10,56,9.60
2004,03,15,10,57,9.60
2004,03,15,10,58,9.60
2004,03,15,10,59,9.60
2004,03,15,11,00,9.60
2004,03,15,11,01,9.60
2004,03,15,11,02,9.60
2004,03,15,11,03,9.60
2004,03,15,11,04,9.50
2004,03,15,11,05,9.50
2004,03,15,11,06,9.50
2004,03,15,11,07,9.50
2004,03,15,11,08,9.60
2004,03,15,11,09,9.50
2004,03,15,11,10,9.50
2004,03,15,11,11,9.50
2004,03,15,11,12,9.50
2004,03,15,11,13,9.60
2004,03,15,11,14,9.50
2004,03,15,11,15,9.50
2004,03,15,11,16,9.50
2004,03,15,11,17,9.50
2004,03,15,11,18,9.50
2004,03,15,11,19,9.50
2004,03,15,11,20,9.50
2004,03,15,11,21,9.30
2004,03,15,11,22,9.40
2004,03,15,11,23,9.40
2004,03,15,11,24,9.60
2004,03,15,11,25,9.70
2004,03,15,11,26,9.70
2004,03,15,11,27,9.50
2004,03,15,11,28,9.50
2004,03,15,11,29,9.40
2004,03,15,11,30,9.40
2004,03,15,11,31,9.40
2004,03,15,11,32,9.30
2004,03,15,11,33,9.30
2004,03,15,11,34,9.20
2004,03,15,11,35,9.30
2004,03,15,11,36,9.20
2004,03,15,11,37,9.20
2004,03,15,11,38,9.20
2004,03,15,11,39,9.40
2004,03,15,11,40,9.40
2004,03,15,11,41,9.40
2004,03,15,11,42,9.50
2004,03,15,11,43,9.40
2004,03,15,11,44,9.40
2004,03,15,11,45,9.40
2004,03,15,11,46,9.40
2004,03,15,11,47,9.50
2004,03,15,11,48,9.50
2004,03,15,11,49,9.40
2004,03,15,11,50,9.40
2004,03,15,11,51,9.40
2004,03,15,11,52,9.40
2004,03,15,11,53,9.40
2004,03,15,11,54,9.30
2004,03,15,11,55,9.40
2004,03,15,11,56,9.40
2004,03,15,11,57,9.50
2004,03,15,11,58,9.60
2004,03,15,11,59,9.50
2004,03,15,12,00,9.50
2004,03,15,12,01,9.50
2004,03,15,12,02,9.40
2004,03,15,12,03,9.40
2004,03,15,12,04,9.30
2004,03,15,12,05,9.40
2004,03,15,12,06,9.40
2004,03,15,12,07,9.50
2004,03,15,12,08,9.50
2004,03,15,12,09,9.40
2004,03,15,12,10,9.40
2004,03,15,12,11,9.30
2004,03,15,12,12,9.20
2004,03,15,12,13,9.20
2004,03,15,12,14,9.20
2004,03,15,12,15,9.20
2004,03,15,12,16,9.20
2004,03,15,12,17,9.20
2004,03,15,12,18,9.40
2004,03,15,12,19,9.40
2004,03,15,12,20,9.40
2004,03,15,12,21,9.40
2004,03,15,12,22,9.40
2004,03,15,12,23,9.40
2004,03,15,12,24,9.50
2004,03,15,12,25,9.40
2004,03,15,12,26,9.40
2004,03,15,12,27,9.40
2004,03,15,12,28,9.50
2004,03,15,12,29,9.50
2004,03,15,12,30,9.60
2004,03,15,12,31,9.60
2004,03,15,12,32,9.70
2004,03,15,12,33,9.70
2004,03,15,12,34,9.70
2004,03,15,12,35,9.80
2004,03,15,12,36,9.90
2004,03,15,12,37,9.90
2004,03,15,12,38,9.80
2004,03,15,12,39,9.80
2004,03,15,12,40,9.80
2004,03,15,12,41,9.70
2004,03,15,12,42,9.70
2004,03,15,12,43,9.70
2004,03,15,12,44,9.80
2004,03,15,12,45,9.80
2004,03,15,12,46,9.80
2004,03,15,12,47,9.70
2004,03,15,12,48,9.70
2004,03,15,12,49,9.60
2004,03,15,12,50,9.60
2004,03,15,12,51,9.60
2004,03,15,12,52,9.70
2004,03,15,12,53,9.70
2004,03,15,12,54,9.70
2004,03,15,12,55,9.70
2004,03,15,12,56,9.80
2004,03,15,12,57,9.80
2004,03,15,12,58,9.80
2004,03,15,12,59,9.80
2004,03,15,13,00,9.70
2004,03,15,13,01,9.80
2004,03,15,13,02,9.80
2004,03,15,13,03,9.90
2004,03,15,13,04,10.00
2004,03,15,13,05,10.10
2004,03,15,13,06,10.10
2004,03,15,13,07,10.10
2004,03,15,13,08,10.10
2004,03,15,13,09,10.20
2004,03,15,13,10,10.20
2004,03,15,13,11,10.30
2004,03,15,13,12,10.30
2004,03,15,13,13,10.40
2004,03,15,13,14,10.40
2004,03,15,13,15,10.40
2004,03,15,13,16,10.40
2004,03,15,13,17,10.40
2004,03,15,13,18,10.40
2004,03,15,13,19,10.40
2004,03,15,13,20,10.40
2004,03,15,13,21,10.50
2004,03,15,13,22,10.50
2004,03,15,13,23,10.60
2004,03,15,13,24,10.40
2004,03,15,13,25,10.40
2004,03,15,13,26,10.40
2004,03,15,13,27,10.50
2004,03,15,13,28,10.60
2004,03,15,13,29,10.60
2004,03,15,13,30,10.60
2004,03,15,13,31,10.60
2004,03,15,13,32,10.60
2004,03,15,13,33,10.50
2004,03,15,13,34,10.60
2004,03,15,13,35,10.70
2004,03,15,13,36,10.80
2004,03,15,13,37,10.90
2004,03,15,13,38,11.00
2004,03,15,13,39,11.10
2004,03,15,13,40,11.00
2004,03,15,13,41,11.10
2004,03,15,13,42,11.20
2004,03,15,13,43,11.30
2004,03,15,13,44,11.40
2004,03,15,13,45,11.40
2004,03,15,13,46,11.30
2004,03,15,13,47,11.30
2004,03,15,13,48,11.20
2004,03,15,13,49,11.20
2004,03,15,13,50,11.20
2004,03,15,13,51,11.30
2004,03,15,13,52,11.40
2004,03,15,13,53,11.50
2004,03,15,13,54,11.60
2004,03,15,13,55,11.60
2004,03,15,13,56,11.60
2004,03,15,13,57,11.60
2004,03,15,13,58,11.60
2004,03,15,13,59,11.60
2004,03,15,14,00,11.70
2004,03,15,14,01,11.60
2004,03,15,14,02,11.60
2004,03,15,14,03,11.60
2004,03,15,14,04,11.70
2004,03,15,14,05,11.80
2004,03,15,14,06,11.80
2004,03,15,14,07,11.80
2004,03,15,14,08,11.70
2004,03,15,14,09,11.70
2004,03,15,14,10,11.50
2004,03,15,14,11,11.50
2004,03,15,14,12,11.50
2004,03,15,14,13,11.50
2004,03,15,14,14,11.40
2004,03,15,14,15,11.30
2004,03,15,14,16,11.30
2004,03,15,14,17,11.30
2004,03,15,14,18,11.20
2004,03,15,14,19,11.10
2004,03,15,14,20,10.90
2004,03,15,14,21,11.00
2004,03,15,14,22,11.00
2004,03,15,14,23,11.00
2004,03,15,14,24,11.00
2004,03,15,14,25,11.10
2004,03,15,14,26,11.00
2004,03,15,14,27,10.90
2004,03,15,14,28,10.90
2004,03,15,14,29,10.80
2004,03,15,14,30,10.80
2004,03,15,14,31,10.80
2004,03,15,14,32,11.00
2004,03,15,14,33,11.10
2004,03,15,14,34,11.10
2004,03,15,14,35,11.10
2004,03,15,14,36,11.10
2004,03,15,14,37,10.90
2004,03,15,14,38,10.90
2004,03,15,14,39,10.90
2004,03,15,14,40,10.90
2004,03,15,14,41,11.10
2004,03,15,14,42,11.00
2004,03,15,14,43,10.90
2004,03,15,14,44,10.80
2004,03,15,14,45,10.80
2004,03,15,14,46,10.80
2004,03,15,14,47,10.90
2004,03,15,14,48,10.90
2004,03,15,14,49,10.80
2004,03,15,14,50,10.90
2004,03,15,14,51,10.80
2004,03,15,14,52,10.70
2004,03,15,14,53,10.60
2004,03,15,14,54,10.60
2004,03,15,14,55,10.60
2004,03,15,14,56,10.60
2004,03,15,14,57,10.60
2004,03,15,14,58,10.60
2004,03,15,14,59,10.50
2004,03,15,15,00,10.50
2004,03,15,15,01,10.50
2004,03,15,15,02,10.40
2004,03,15,15,03,10.40
2004,03,15,15,04,10.40
2004,03,15,15,05,10.40
2004,03,15,15,06,10.40
2004,03,15,15,07,10.50
2004,03,15,15,08,10.60
2004,03,15,15,09,10.50
2004,03,15,15,10,10.50
2004,03,15,15,11,10.40
2004,03,15,15,12,10.40
2004,03,15,15,13,10.40
2004,03,15,15,14,10.40
2004,03,15,15,15,10.40
2004,03,15,15,16,10.50
2004,03,15,15,17,10.50
2004,03,15,15,18,10.50
2004,03,15,15,19,10.50
2004,03,15,15,20,10.40
2004,03,15,15,21,10.40
2004,03,15,15,22,10.40
2004,03,15,15,23,10.50
2004,03,15,15,24,10.60
2004,03,15,15,25,10.70
2004,03,15,15,26,10.80
2004,03,15,15,27,10.60
2004,03,15,15,28,10.60
2004,03,15,15,29,10.60
2004,03,15,15,30,10.60
2004,03,15,15,31,10.60
2004,03,15,15,32,10.50
2004,03,15,15,33,10.50
2004,03,15,15,34,10.40
2004,03,15,15,35,10.40
2004,03,15,15,36,10.40
2004,03,15,15,37,10.30
2004,03,15,15,38,10.30
2004,03,15,15,39,10.30
2004,03,15,15,40,10.30
2004,03,15,15,41,10.30
2004,03,15,15,42,10.40
2004,03,15,15,43,10.40
2004,03,15,15,44,10.40
2004,03,15,15,45,10.30
2004,03,15,15,46,10.30
2004,03,15,15,47,10.30
2004,03,15,15,48,10.20
2004,03,15,15,49,10.20
2004,03,15,15,50,10.20
2004,03,15,15,51,10.20
2004,03,15,15,52,10.20
2004,03,15,15,53,10.10
2004,03,15,15,54,10.10
2004,03,15,15,55,10.10
2004,03,15,15,56,10.00
2004,03,15,15,57,10.00
2004,03,15,15,58,9.90
2004,03,15,15,59,10.00
2004,03,15,16,00,10.10
2004,03,15,16,01,10.00
2004,03,15,16,02,10.00
2004,03,15,16,03,10.00
2004,03,15,16,04,10.00
2004,03,15,16,05,10.00
2004,03,15,16,06,9.90
2004,03,15,16,07,9.90
2004,03,15,16,08,9.90
2004,03,15,16,09,9.90
2004,03,15,16,10,10.00
2004,03,15,16,11,9.90
2004,03,15,16,12,10.00
2004,03,15,16,13,10.00
2004,03,15,16,14,9.90
2004,03,15,16,15,9.90
2004,03,15,16,16,9.80
2004,03,15,16,17,9.80
2004,03,15,16,18,9.80
2004,03,15,16,19,9.80
2004,03,15,16,20,9.80
2004,03,15,16,21,9.90
2004,03,15,16,22,10.10
2004,03,15,16,23,10.10
2004,03,15,16,24,10.10
2004,03,15,16,25,10.00
2004,03,15,16,26,10.10
2004,03,15,16,27,10.00
2004,03,15,16,28,10.10
2004,03,15,16,29,10.10
2004,03,15,16,30,10.10
2004,03,15,16,31,10.20
2004,03,15,16,32,10.20
2004,03,15,16,33,10.20
2004,03,15,16,34,10.10
2004,03,15,16,35,10.10
2004,03,15,16,36,10.10
2004,03,15,16,37,10.10
2004,03,15,16,38,10.10
2004,03,15,16,39,9.90
2004,03,15,16,40,9.90
2004,03,15,16,41,9.90
2004,03,15,16,42,9.80
2004,03,15,16,43,9.80
2004,03,15,16,44,9.70
2004,03,15,16,45,9.70
2004,03,15,16,46,9.70
2004,03,15,16,47,9.70
2004,03,15,16,48,9.70
2004,03,15,16,49,9.70
2004,03,15,16,50,9.70
2004,03,15,16,51,9.60
2004,03,15,16,52,9.60
2004,03,15,16,53,9.60
2004,03,15,16,54,9.60
2004,03,15,16,55,9.60
2004,03,15,16,56,9.70
2004,03,15,16,57,9.70
2004,03,15,16,58,9.70
2004,03,15,16,59,9.60
2004,03,15,17,00,9.60
2004,03,15,17,01,9.50
2004,03,15,17,02,9.60
2004,03,15,17,03,9.60
2004,03,15,17,04,9.70
2004,03,15,17,05,9.80
2004,03,15,17,06,9.70
2004,03,15,17,07,9.70
2004,03,15,17,08,9.60
2004,03,15,17,09,9.70
2004,03,15,17,10,9.70
2004,03,15,17,11,9.70
2004,03,15,17,12,9.70
2004,03,15,17,13,9.70
2004,03,15,17,14,9.60
2004,03,15,17,15,9.70
2004,03,15,17,16,9.70
2004,03,15,17,17,9.70
2004,03,15,17,18,9.70
2004,03,15,17,19,9.60
2004,03,15,17,20,9.60
2004,03,15,17,21,9.60
2004,03,15,17,22,9.60
2004,03,15,17,23,9.70
2004,03,15,17,24,9.70
2004,03,15,17,25,9.60
2004,03,15,17,26,9.60
2004,03,15,17,27,9.60
2004,03,15,17,28,9.70
2004,03,15,17,29,9.70
2004,03,15,17,30,9.60
2004,03,15,17,31,9.80
2004,03,15,17,32,9.80
2004,03,15,17,33,9.70
2004,03,15,17,34,9.70
2004,03,15,17,35,9.60
2004,03,15,17,36,9.50
2004,03,15,17,37,9.60
2004,03,15,17,38,9.70
2004,03,15,17,39,9.90
2004,03,15,17,40,9.90
2004,03,15,17,41,9.90
2004,03,15,17,42,9.90
2004,03,15,17,43,9.90
2004,03,15,17,44,9.90
2004,03,15,17,45,9.80
2004,03,15,17,46,9.80
2004,03,15,17,47,9.80
2004,03,15,17,48,9.90
2004,03,15,17,49,10.00
2004,03,15,17,50,9.90
2004,03,15,17,51,10.00
2004,03,15,17,52,9.90
2004,03,15,17,53,9.90
2004,03,15,17,54,9.90
2004,03,15,17,55,9.80
2004,03,15,17,56,9.70
2004,03,15,17,57,9.70
2004,03,15,17,58,9.70
2004,03,15,17,59,9.60
2004,03,15,18,00,9.60
2004,03,15,18,01,9.70
2004,03,15,18,02,9.70
2004,03,15,18,03,9.70
2004,03,15,18,04,9.70
2004,03,15,18,05,9.70
2004,03,15,18,06,9.80
2004,03,15,18,07,9.80
2004,03,15,18,08,9.80
2004,03,15,18,09,9.90
2004,03,15,18,10,9.90
2004,03,15,18,11,9.90
2004,03,15,18,12,9.90
2004,03,15,18,13,9.80
2004,03,15,18,14,9.80
2004,03,15,18,15,9.80
2004,03,15,18,16,9.70
2004,03,15,18,17,9.80
2004,03,15,18,18,9.90
2004,03,15,18,19,9.90
2004,03,15,18,20,9.90
2004,03,15,18,21,9.90
2004,03,15,18,22,9.90
2004,03,15,18,23,9.90
2004,03,15,18,24,9.90
2004,03,15,18,25,10.00
2004,03,15,18,26,9.90
2004,03,15,18,27,9.90
2004,03,15,18,28,9.80
2004,03,15,18,29,9.90
2004,03,15,18,30,9.80
2004,03,15,18,31,9.80
2004,03,15,18,32,9.70
2004,03,15,18,33,9.70
2004,03,15,18,34,9.70
2004,03,15,18,35,9.70
2004,03,15,18,36,9.70
2004,03,15,18,37,9.70
2004,03,15,18,38,9.60
2004,03,15,18,39,9.60
2004,03,15,18,40,9.60
2004,03,15,18,41,9.70
2004,03,15,18,42,9.70
2004,03,15,18,43,9.80
2004,03,15,18,44,9.80
2004,03,15,18,45,9.80
2004,03,15,18,46,9.80
2004,03,15,18,47,9.70
2004,03,15,18,48,9.70
2004,03,15,18,49,9.70
2004,03,15,18,50,9.80
2004,03,15,18,51,9.80
2004,03,15,18,52,9.80
2004,03,15,18,53,9.70
2004,03,15,18,54,9.60
2004,03,15,18,55,9.60
2004,03,15,18,56,9.60
2004,03,15,18,57,9.70
2004,03,15,18,58,9.70
2004,03,15,18,59,9.80
2004,03,15,19,00,9.80
2004,03,15,19,01,9.70
2004,03,15,19,02,9.70
2004,03,15,19,03,9.60
2004,03,15,19,04,9.50
2004,03,15,19,05,9.60
2004,03,15,19,06,9.60
2004,03,15,19,07,9.60
2004,03,15,19,08,9.70
2004,03,15,19,09,9.70
2004,03,15,19,10,9.80
2004,03,15,19,11,9.80
2004,03,15,19,12,9.80
2004,03,15,19,13,9.80
2004,03,15,19,14,9.80
2004,03,15,19,15,9.80
2004,03,15,19,16,9.80
2004,03,15,19,17,9.90
2004,03,15,19,18,9.80
2004,03,15,19,19,9.90
2004,03,15,19,20,9.90
2004,03,15,19,21,9.80
2004,03,15,19,22,9.70
2004,03,15,19,23,9.70
2004,03,15,19,24,9.60
2004,03,15,19,25,9.70
2004,03,15,19,26,9.60
2004,03,15,19,27,9.60
2004,03,15,19,28,9.70
2004,03,15,19,29,9.70
2004,03,15,19,30,9.70
2004,03,15,19,31,9.70
2004,03,15,19,32,9.80
2004,03,15,19,33,9.80
2004,03,15,19,34,9.80
2004,03,15,19,35,9.80
2004,03,15,19,36,9.70
2004,03,15,19,37,9.70
2004,03,15,19,38,9.70
2004,03,15,19,39,9.70
2004,03,15,19,40,9.80
2004,03,15,19,41,9.80
2004,03,15,19,42,9.80
2004,03,15,19,43,9.80
2004,03,15,19,44,9.80
2004,03,15,19,45,9.90
2004,03,15,19,46,9.80
2004,03,15,19,47,9.70
2004,03,15,19,48,9.70
2004,03,15,19,49,9.70
2004,03,15,19,50,9.60
2004,03,15,19,51,9.70
2004,03,15,19,52,9.70
2004,03,15,19,53,9.70
2004,03,15,19,54,9.70
2004,03,15,19,55,9.70
2004,03,15,19,56,9.70
2004,03,15,19,57,9.60
2004,03,15,19,58,9.70
2004,03,15,19,59,9.70
2004,03,15,20,00,9.70
2004,03,15,20,01,9.70
2004,03,15,20,02,9.70
2004,03,15,20,03,9.70
2004,03,15,20,04,9.70
2004,03,15,20,05,9.60
2004,03,15,20,06,9.70
2004,03,15,20,07,9.70
2004,03,15,20,08,9.70
2004,03,15,20,09,9.70
2004,03,15,20,10,9.70
2004,03,15,20,11,9.70
2004,03,15,20,12,9.80
2004,03,15,20,13,9.80
2004,03,15,20,14,9.80
2004,03,15,20,15,9.80
2004,03,15,20,16,9.80
2004,03,15,20,17,9.80
2004,03,15,20,18,9.70
2004,03,15,20,19,9.70
2004,03,15,20,20,9.70
2004,03,15,20,21,9.70
2004,03,15,20,22,9.70
2004,03,15,20,23,9.70
2004,03,15,20,24,9.70
2004,03,15,20,25,9.70
2004,03,15,20,26,9.70
2004,03,15,20,27,9.70
2004,03,15,20,28,9.80
2004,03,15,20,29,9.90
2004,03,15,20,30,9.90
2004,03,15,20,31,9.90
2004,03,15,20,32,9.90
2004,03,15,20,33,9.90
2004,03,15,20,34,9.90
2004,03,15,20,35,9.90
2004,03,15,20,36,9.80
2004,03,15,20,37,9.70
2004,03,15,20,38,9.70
2004,03,15,20,39,9.70
2004,03,15,20,40,9.60
2004,03,15,20,41,9.40
2004,03,15,20,42,9.30
2004,03,15,20,43,9.20
2004,03,15,20,44,9.20
2004,03,15,20,45,9.10
2004,03,15,20,46,9.10
2004,03,15,20,47,9.10
2004,03,15,20,48,9.10
2004,03,15,20,49,9.00
2004,03,15,20,50,9.00
2004,03,15,20,51,8.90
2004,03,15,20,52,8.90
2004,03,15,20,53,8.90
2004,03,15,20,54,9.00
2004,03,15,20,55,9.00
2004,03,15,20,56,8.90
2004,03,15,20,57,8.90
2004,03,15,20,58,8.90
2004,03,15,20,59,8.90
2004,03,15,21,00,8.90
2004,03,15,21,01,9.00
2004,03,15,21,02,9.00
2004,03,15,21,03,9.00
2004,03,15,21,04,9.00
2004,03,15,21,05,9.00
2004,03,15,21,06,8.90
2004,03,15,21,07,8.90
2004,03,15,21,08,8.90
2004,03,15,21,09,8.90
2004,03,15,21,10,8.90
2004,03,15,21,11,8.80
2004,03,15,21,12,8.70
2004,03,15,21,13,8.70
2004,03,15,21,14,8.70
2004,03,15,21,15,8.70
2004,03,15,21,16,8.80
2004,03,15,21,17,8.80
2004,03,15,21,18,8.80
2004,03,15,21,19,8.70
2004,03,15,21,20,8.70
2004,03,15,21,21,8.70
2004,03,15,21,22,8.70
2004,03,15,21,23,8.70
2004,03,15,21,24,8.70
2004,03,15,21,25,8.60
2004,03,15,21,26,8.60
2004,03,15,21,27,8.60
2004,03,15,21,28,8.50
2004,03,15,21,29,8.60
2004,03,15,21,30,8.60
2004,03,15,21,31,8.70
2004,03,15,21,32,8.70
2004,03,15,21,33,8.70
2004,03,15,21,34,8.70
2004,03,15,21,35,8.70
2004,03,15,21,36,8.70
2004,03,15,21,37,8.80
2004,03,15,21,38,8.80
2004,03,15,21,39,8.80
2004,03,15,21,40,8.70
2004,03,15,21,41,8.70
2004,03,15,21,42,8.70
2004,03,15,21,43,8.70
2004,03,15,21,44,8.60
2004,03,15,21,45,8.70
2004,03,15,21,46,8.70
2004,03,15,21,47,8.70
2004,03,15,21,48,8.70
2004,03,15,21,49,8.70
2004,03,15,21,50,8.70
2004,03,15,21,51,8.70
2004,03,15,21,52,8.70
2004,03,15,21,53,8.70
2004,03,15,21,54,8.70
2004,03,15,21,55,8.80
2004,03,15,21,56,8.70
2004,03,15,21,57,8.70
2004,03,15,21,58,8.70
2004,03,15,21,59,8.70
2004,03,15,22,00,8.70
2004,03,15,22,01,8.70
2004,03,15,22,02,8.80
2004,03,15,22,03,8.90
2004,03,15,22,04,8.90
2004,03,15,22,05,8.90
2004,03,15,22,06,8.90
2004,03,15,22,07,8.90
2004,03,15,22,08,8.90
2004,03,15,22,09,8.90
2004,03,15,22,10,8.90
2004,03,15,22,11,8.90
2004,03,15,22,12,8.90
2004,03,15,22,13,8.80
2004,03,15,22,14,8.80
2004,03,15,22,15,8.80
2004,03,15,22,16,8.70
2004,03,15,22,17,8.70
2004,03,15,22,18,8.70
2004,03,15,22,19,8.70
2004,03,15,22,20,8.70
2004,03,15,22,21,8.70
2004,03,15,22,22,8.70
2004,03,15,22,23,8.70
2004,03,15,22,24,8.70
2004,03,15,22,25,8.70
2004,03,15,22,26,8.70
2004,03,15,22,27,8.80
2004,03,15,22,28,8.80
2004,03,15,22,29,8.80
2004,03,15,22,30,8.80
2004,03,15,22,31,8.90
2004,03,15,22,32,8.90
2004,03,15,22,33,8.90
2004,03,15,22,34,8.90
2004,03,15,22,35,9.00
2004,03,15,22,36,8.90
2004,03,15,22,37,8.90
2004,03,15,22,38,8.90
2004,03,15,22,39,8.90
2004,03,15,22,40,8.80
2004,03,15,22,41,8.90
2004,03,15,22,42,8.90
2004,03,15,22,43,8.90
2004,03,15,22,44,8.90
2004,03,15,22,45,8.90
2004,03,15,22,46,8.90
2004,03,15,22,47,8.90
2004,03,15,22,48,8.80
2004,03,15,22,49,8.90
2004,03,15,22,50,8.90
2004,03,15,22,51,8.90
2004,03,15,22,52,8.90
2004,03,15,22,53,8.90
2004,03,15,22,54,8.90
2004,03,15,22,55,8.90
2004,03,15,22,56,8.90
2004,03,15,22,57,8.90
2004,03,15,22,58,8.90
2004,03,15,22,59,8.90
2004,03,15,23,00,8.90
2004,03,15,23,01,8.90
2004,03,15,23,02,8.90
2004,03,15,23,03,8.80
2004,03,15,23,04,8.80
2004,03,15,23,05,8.80
2004,03,15,23,06,8.80
2004,03,15,23,07,8.90
2004,03,15,23,08,8.90
2004,03,15,23,09,8.90
2004,03,15,23,10,8.90
2004,03,15,23,11,8.90
2004,03,15,23,12,8.90
2004,03,15,23,13,8.90
2004,03,15,23,14,8.90
2004,03,15,23,15,8.80
2004,03,15,23,16,8.80
2004,03,15,23,17,8.90
2004,03,15,23,18,8.90
2004,03,15,23,19,8.90
2004,03,15,23,20,8.90
2004,03,15,23,21,8.90
2004,03,15,23,22,8.90
2004,03,15,23,23,8.90
2004,03,15,23,24,8.80
2004,03,15,23,25,8.80
2004,03,15,23,26,8.80
2004,03,15,23,27,8.80
2004,03,15,23,28,8.80
2004,03,15,23,29,8.90
2004,03,15,23,30,8.80
2004,03,15,23,31,8.80
2004,03,15,23,32,8.80
2004,03,15,23,33,8.70
2004,03,15,23,34,8.70
2004,03,15,23,35,8.70
2004,03,15,23,36,8.70
2004,03,15,23,37,8.70
2004,03,15,23,38,8.70
2004,03,15,23,39,8.70
2004,03,15,23,40,8.70
2004,03,15,23,41,8.60
2004,03,15,23,42,8.60
2004,03,15,23,43,8.70
2004,03,15,23,44,8.70
2004,03,15,23,45,8.70
2004,03,15,23,46,8.70
2004,03,15,23,47,8.70
2004,03,15,23,48,8.70
2004,03,15,23,49,8.60
2004,03,15,23,50,8.60
2004,03,15,23,51,8.60
2004,03,15,23,52,8.60
2004,03,15,23,53,8.70
2004,03,15,23,54,8.70
2004,03,15,23,55,8.70
2004,03,15,23,56,8.70
2004,03,15,23,57,8.70
2004,03,15,23,58,8.70
2004,03,15,23,59,8.70
